TimeMST,TemperatureF,Dew PointF,Humidity,Sea Level PressureIn,VisibilityMPH,Wind Direction,Wind SpeedMPH,Gust SpeedMPH,PrecipitationIn,Events,Conditions,WindDirDegrees,DateUTC
12:54 AM,27.0,19.9,75,30.20,10.0,West,20.7,-,N/A,,Clear,270,2014-02-12 07:54:00
1:54 AM,26.1,19.9,78,30.19,10.0,West,18.4,27.6,N/A,,Clear,260,2014-02-12 08:54:00
2:54 AM,25.0,19.0,78,30.20,10.0,WSW,17.3,-,N/A,,Clear,250,2014-02-12 09:54:00
3:54 AM,27.0,19.9,75,30.19,10.0,WSW,11.5,-,N/A,,Mostly Cloudy,240,2014-02-12 10:54:00
4:54 AM,26.1,19.0,75,30.21,10.0,SW,10.4,-,N/A,,Overcast,230,2014-02-12 11:54:00
5:54 AM,26.1,18.0,71,30.19,10.0,WSW,12.7,-,N/A,,Mostly Cloudy,240,2014-02-12 12:54:00
6:54 AM,27.0,17.1,66,30.16,10.0,SW,12.7,-,N/A,,Mostly Cloudy,230,2014-02-12 13:54:00
7:54 AM,28.0,18.0,66,30.14,10.0,SW,16.1,-,N/A,,Mostly Cloudy,230,2014-02-12 14:54:00
8:54 AM,30.9,18.0,59,30.11,10.0,SW,13.8,-,N/A,,Overcast,220,2014-02-12 15:54:00
9:54 AM,33.1,18.0,54,30.08,10.0,SSW,10.4,-,N/A,,Mostly Cloudy,200,2014-02-12 16:54:00
10:54 AM,35.1,19.9,54,30.03,10.0,WSW,27.6,40.3,N/A,,Scattered Clouds,250,2014-02-12 17:54:00
11:54 AM,36.0,23.0,59,30.01,10.0,West,42.6,56.4,N/A,,Mostly Cloudy,260,2014-02-12 18:54:00
12:54 PM,37.0,24.1,59,30.00,10.0,West,29.9,42.6,N/A,,Mostly Cloudy,260,2014-02-12 19:54:00
1:54 PM,37.9,27.0,65,29.96,10.0,WSW,32.2,40.3,N/A,,Overcast,250,2014-02-12 20:54:00
2:54 PM,37.9,28.0,68,29.97,10.0,West,27.6,35.7,N/A,,Overcast,260,2014-02-12 21:54:00
3:22 PM,37.9,28.0,68,29.93,10.0,West,26.5,39.1,N/A,,Overcast,260,2014-02-12 22:22:00
3:54 PM,37.0,28.9,73,29.96,10.0,WSW,24.2,32.2,N/A,,Overcast,250,2014-02-12 22:54:00
4:54 PM,37.0,28.9,73,29.98,10.0,WSW,25.3,33.4,N/A,,Overcast,250,2014-02-12 23:54:00
5:08 PM,36.0,28.9,76,29.94,10.0,WSW,23.0,33.4,N/A,,Overcast,250,2014-02-13 00:08:00
5:43 PM,36.0,30.0,79,29.97,10.0,WSW,20.7,27.6,N/A,,Overcast,250,2014-02-13 00:43:00
5:54 PM,37.0,30.0,76,30.01,10.0,West,28.8,33.4,N/A,,Overcast,260,2014-02-13 00:54:00
6:36 PM,36.0,30.0,79,29.99,10.0,WSW,27.6,34.5,N/A,,Overcast,250,2014-02-13 01:36:00
6:54 PM,36.0,30.0,79,30.03,10.0,WSW,24.2,34.5,N/A,,Overcast,250,2014-02-13 01:54:00
7:24 PM,36.0,30.0,79,30.00,10.0,WSW,23.0,32.2,N/A,,Mostly Cloudy,250,2014-02-13 02:24:00
7:54 PM,36.0,30.0,79,30.04,10.0,WSW,20.7,-,N/A,,Overcast,250,2014-02-13 02:54:00
8:08 PM,35.1,30.0,82,30.01,10.0,WSW,20.7,31.1,N/A,,Overcast,250,2014-02-13 03:08:00
8:26 PM,35.1,30.0,82,30.02,10.0,WSW,21.9,-,N/A,,Scattered Clouds,250,2014-02-13 03:26:00
8:54 PM,35.1,30.0,82,30.04,10.0,WSW,23.0,29.9,N/A,,Clear,250,2014-02-13 03:54:00
9:54 PM,35.1,30.0,82,30.04,10.0,WSW,18.4,-,N/A,,Partly Cloudy,240,2014-02-13 04:54:00
10:54 PM,35.1,28.9,78,30.02,10.0,WSW,16.1,-,N/A,,Partly Cloudy,250,2014-02-13 05:54:00
11:54 PM,35.1,28.9,78,30.01,10.0,WSW,18.4,-,N/A,,Clear,250,2014-02-13 06:54:00